EZS32GV LSGG-LFKJ

Flight info

Callsign EZS32GV
Flight time 0h 50m
Altitude 31000
Route MEDAM1A MEDAM DCT VEVAR DCT BARSO DCT KOLON DCT OMARD M623 VAREK VAREK3N
Aircraft A320/M-SDE3FGHIRWY/LB1

Departure

Time 2026-04-10 13:57
Airport Geneva International Airport (LSGG)

Arrival

Time 2026-04-10 14:48
Airport Ajaccio Napoléon Bonaparte airport (LFKJ)
Time Latitude Longitude Altitude Speed Heading
2026-04-10 13:22 46.23099 6.10670 1398 ft 0 kts 135°
2026-04-10 13:47 46.23101 6.10668 1393 ft 2 kts 135°
2026-04-10 13:48 46.23118 6.10641 1404 ft 4 kts 120°
2026-04-10 13:48 46.23126 6.10608 1403 ft 4 kts 73°
2026-04-10 13:48 46.23113 6.10581 1398 ft 4 kts 45°
2026-04-10 13:48 46.23109 6.10576 1401 ft 0 kts 45°
2026-04-10 13:52 46.23132 6.10609 1402 ft 10 kts 45°
2026-04-10 13:52 46.23182 6.10681 1401 ft 7 kts 45°
2026-04-10 13:52 46.23215 6.10730 1402 ft 6 kts 45°
2026-04-10 13:52 46.23256 6.10780 1402 ft 12 kts 26°
2026-04-10 13:53 46.23356 6.10791 1402 ft 16 kts 330°
2026-04-10 13:53 46.23431 6.10699 1392 ft 13 kts 348°
2026-04-10 13:53 46.23496 6.10774 1389 ft 13 kts 43°
2026-04-10 13:53 46.23577 6.10892 1388 ft 20 kts 45°
2026-04-10 13:54 46.23690 6.11057 1385 ft 27 kts 44°
2026-04-10 13:54 46.23836 6.11271 1375 ft 29 kts 46°
2026-04-10 13:54 46.23979 6.11481 1373 ft 31 kts 45°
2026-04-10 13:54 46.24119 6.11686 1367 ft 30 kts 45°
2026-04-10 13:55 46.24263 6.11898 1361 ft 30 kts 45°
2026-04-10 13:55 46.24405 6.12106 1369 ft 28 kts 45°
2026-04-10 13:55 46.24538 6.12302 1372 ft 28 kts 45°
2026-04-10 13:55 46.24673 6.12499 1365 ft 20 kts 45°
2026-04-10 13:56 46.24780 6.12652 1362 ft 21 kts 39°
2026-04-10 13:56 46.24912 6.12717 1366 ft 16 kts 15°
2026-04-10 13:56 46.24996 6.12737 1370 ft 11 kts 346°
2026-04-10 13:56 46.25013 6.12668 1372 ft 8 kts 228°
2026-04-10 13:57 46.24924 6.12541 1372 ft 45 kts 225°
2026-04-10 13:57 46.24535 6.11965 1372 ft 113 kts 225°
2026-04-10 13:57 46.23858 6.10965 1380 ft 163 kts 226°
2026-04-10 13:57 46.23073 6.09755 2018 ft 162 kts 226°
2026-04-10 13:58 46.22281 6.08567 2737 ft 166 kts 226°
2026-04-10 13:58 46.21423 6.07318 3102 ft 186 kts 229°
2026-04-10 13:58 46.20451 6.05905 3407 ft 211 kts 227°
2026-04-10 13:58 46.19357 6.04312 3797 ft 236 kts 226°
2026-04-10 13:59 46.18138 6.02542 4302 ft 258 kts 226°
2026-04-10 13:59 46.16859 6.00687 5101 ft 265 kts 226°
2026-04-10 13:59 46.15551 5.98786 6013 ft 268 kts 226°
2026-04-10 13:59 46.14241 5.96847 6945 ft 271 kts 228°
2026-04-10 14:00 46.12739 5.95181 7796 ft 278 kts 207°
2026-04-10 14:00 46.10842 5.94527 8651 ft 288 kts 183°
2026-04-10 14:00 46.08864 5.95097 9513 ft 296 kts 157°
2026-04-10 14:00 46.07202 5.96867 10346 ft 302 kts 130°
2026-04-10 14:01 46.06206 5.99534 11114 ft 308 kts 105°
2026-04-10 14:01 46.05704 6.02652 11406 ft 331 kts 102°
2026-04-10 14:01 46.05227 6.06015 11685 ft 352 kts 101°
2026-04-10 14:01 46.04566 6.09458 12278 ft 361 kts 112°
2026-04-10 14:02 46.03405 6.12648 12927 ft 368 kts 125°
2026-04-10 14:02 46.01729 6.15459 13561 ft 373 kts 140°
2026-04-10 14:02 45.99675 6.17755 14144 ft 376 kts 146°
2026-04-10 14:02 45.97539 6.19989 14773 ft 380 kts 146°
2026-04-10 14:03 45.95389 6.22244 15407 ft 384 kts 146°
2026-04-10 14:03 45.93223 6.24527 16070 ft 388 kts 146°
2026-04-10 14:03 45.91039 6.26838 16729 ft 392 kts 146°
2026-04-10 14:03 45.88834 6.29170 17385 ft 395 kts 146°
2026-04-10 14:04 45.86610 6.31531 18033 ft 399 kts 146°
2026-04-10 14:04 45.84364 6.33922 18541 ft 405 kts 146°
2026-04-10 14:04 45.82085 6.36349 19085 ft 409 kts 146°
2026-04-10 14:05 45.77456 6.41261 20138 ft 417 kts 146°
2026-04-10 14:05 45.75111 6.43744 20626 ft 422 kts 146°
2026-04-10 14:05 45.72772 6.46227 21122 ft 426 kts 146°
2026-04-10 14:05 45.70383 6.48759 21609 ft 430 kts 146°
2026-04-10 14:06 45.67966 6.51313 22098 ft 433 kts 146°
2026-04-10 14:06 45.65528 6.53883 22485 ft 437 kts 146°
2026-04-10 14:06 45.63071 6.56471 22931 ft 440 kts 146°
2026-04-10 14:06 45.60593 6.59079 23378 ft 445 kts 146°
2026-04-10 14:07 45.58092 6.61708 23782 ft 448 kts 146°
2026-04-10 14:07 45.55579 6.64348 24145 ft 450 kts 146°
2026-04-10 14:07 45.53051 6.67002 24552 ft 452 kts 146°
2026-04-10 14:07 45.50506 6.69666 24979 ft 455 kts 146°
2026-04-10 14:08 45.47950 6.72337 25393 ft 457 kts 146°
2026-04-10 14:08 45.45379 6.75023 25818 ft 460 kts 146°
2026-04-10 14:08 45.42782 6.77698 26219 ft 462 kts 147°
2026-04-10 14:08 45.40154 6.80348 26605 ft 464 kts 147°
2026-04-10 14:09 45.37535 6.82956 26991 ft 466 kts 147°
2026-04-10 14:09 45.34870 6.85598 27373 ft 468 kts 147°
2026-04-10 14:09 45.32189 6.88261 27770 ft 470 kts 147°
2026-04-10 14:09 45.29467 6.90837 28167 ft 471 kts 153°
2026-04-10 14:10 45.26528 6.92878 28553 ft 469 kts 162°
2026-04-10 14:10 45.23423 6.94261 28903 ft 467 kts 171°
2026-04-10 14:10 45.20225 6.94988 29198 ft 466 kts 178°
2026-04-10 14:10 45.16993 6.95488 29461 ft 469 kts 178°
2026-04-10 14:11 45.13742 6.95989 29767 ft 471 kts 178°
2026-04-10 14:11 45.10472 6.96493 30007 ft 474 kts 178°
2026-04-10 14:11 45.07183 6.97010 30328 ft 476 kts 178°
2026-04-10 14:11 45.03888 6.97529 30571 ft 477 kts 178°
2026-04-10 14:12 45.00583 6.98049 30830 ft 479 kts 178°
2026-04-10 14:12 44.97263 6.98567 30990 ft 481 kts 178°
2026-04-10 14:12 44.93960 6.99075 31038 ft 469 kts 178°
2026-04-10 14:13 44.87576 7.00071 31038 ft 460 kts 178°
2026-04-10 14:13 44.81138 7.00996 31022 ft 464 kts 182°
2026-04-10 14:14 44.74772 7.00259 31019 ft 458 kts 192°
2026-04-10 14:14 44.68459 6.99057 31033 ft 457 kts 192°
2026-04-10 14:15 44.62194 6.97895 31011 ft 456 kts 192°
2026-04-10 14:15 44.55902 6.96723 31045 ft 454 kts 192°
2026-04-10 14:16 44.49658 6.95562 31059 ft 451 kts 192°
2026-04-10 14:16 44.43458 6.94418 31055 ft 448 kts 192°
2026-04-10 14:17 44.37285 6.93286 31041 ft 446 kts 192°
2026-04-10 14:17 44.31136 6.92148 31031 ft 445 kts 192°
2026-04-10 14:18 44.24999 6.91011 31025 ft 444 kts 192°
2026-04-10 14:18 44.18870 6.89862 31011 ft 444 kts 192°
2026-04-10 14:19 44.12695 6.89293 31014 ft 450 kts 179°
2026-04-10 14:19 44.06450 6.90221 31007 ft 451 kts 178°
2026-04-10 14:20 44.00206 6.91173 30985 ft 452 kts 177°
2026-04-10 14:20 43.93962 6.92096 30993 ft 451 kts 178°
2026-04-10 14:21 43.87717 6.93017 30996 ft 451 kts 177°
2026-04-10 14:21 43.81469 6.93949 30995 ft 451 kts 177°
2026-04-10 14:22 43.75269 6.95064 31003 ft 454 kts 169°
2026-04-10 14:22 43.69415 6.98394 31004 ft 459 kts 149°
2026-04-10 14:23 43.64266 7.03643 31008 ft 460 kts 144°
2026-04-10 14:23 43.59151 7.08971 31008 ft 460 kts 143°
2026-04-10 14:24 43.54032 7.14276 31017 ft 460 kts 143°
2026-04-10 14:24 43.48920 7.19577 31013 ft 460 kts 143°
2026-04-10 14:25 43.43840 7.24833 31016 ft 460 kts 144°
2026-04-10 14:25 43.38721 7.30107 31010 ft 459 kts 143°
2026-04-10 14:26 43.33612 7.35375 31011 ft 459 kts 143°
2026-04-10 14:26 43.31062 7.38006 30879 ft 457 kts 143°
2026-04-10 14:26 43.28525 7.40619 30634 ft 454 kts 144°
2026-04-10 14:26 43.26001 7.43213 30390 ft 452 kts 144°
2026-04-10 14:27 43.23479 7.45805 30148 ft 451 kts 144°
2026-04-10 14:27 43.21010 7.48343 29716 ft 448 kts 144°
2026-04-10 14:27 43.18523 7.50891 29138 ft 444 kts 144°
2026-04-10 14:27 43.16056 7.53412 28580 ft 441 kts 144°
2026-04-10 14:28 43.13608 7.55912 28064 ft 437 kts 144°
2026-04-10 14:28 43.11137 7.58281 27576 ft 431 kts 150°
2026-04-10 14:28 43.08470 7.60098 27085 ft 426 kts 160°
2026-04-10 14:28 43.05704 7.61482 26621 ft 421 kts 162°
2026-04-10 14:29 43.02964 7.62840 26155 ft 417 kts 162°
2026-04-10 14:29 43.00250 7.64194 25701 ft 414 kts 162°
2026-04-10 14:29 42.97557 7.65532 25255 ft 410 kts 162°
2026-04-10 14:29 42.94889 7.66860 24788 ft 407 kts 161°
2026-04-10 14:30 42.92241 7.68177 24348 ft 404 kts 161°
2026-04-10 14:30 42.89603 7.69484 23888 ft 402 kts 161°
2026-04-10 14:30 42.86980 7.70784 23382 ft 400 kts 161°
2026-04-10 14:30 42.84370 7.72074 22905 ft 397 kts 162°
2026-04-10 14:31 42.81788 7.73347 22441 ft 393 kts 162°
2026-04-10 14:31 42.79221 7.74614 21970 ft 391 kts 162°
2026-04-10 14:31 42.76702 7.75853 21509 ft 388 kts 162°
2026-04-10 14:31 42.74167 7.77099 21046 ft 386 kts 162°
2026-04-10 14:32 42.71648 7.78339 20577 ft 384 kts 162°
2026-04-10 14:32 42.69141 7.79574 20110 ft 382 kts 162°
2026-04-10 14:32 42.66642 7.80804 19646 ft 381 kts 162°
2026-04-10 14:32 42.64155 7.82025 19179 ft 380 kts 162°
2026-04-10 14:33 42.61671 7.83244 18725 ft 378 kts 162°
2026-04-10 14:33 42.59197 7.84456 18261 ft 377 kts 162°
2026-04-10 14:33 42.57565 7.85253 17923 ft 376 kts 162°
2026-04-10 14:33 42.55107 7.86453 17464 ft 373 kts 162°
2026-04-10 14:34 42.52670 7.87646 17021 ft 370 kts 162°
2026-04-10 14:34 42.50257 7.88831 16584 ft 368 kts 162°
2026-04-10 14:34 42.47858 7.90005 16145 ft 365 kts 162°
2026-04-10 14:34 42.45474 7.91168 15699 ft 363 kts 162°
2026-04-10 14:35 42.43103 7.92323 15279 ft 361 kts 162°
2026-04-10 14:35 42.40744 7.93472 14848 ft 360 kts 162°
2026-04-10 14:35 42.38387 7.94616 14421 ft 358 kts 162°
2026-04-10 14:35 42.36043 7.95753 13984 ft 357 kts 162°
2026-04-10 14:36 42.33758 7.97060 13520 ft 358 kts 151°
2026-04-10 14:36 42.31785 7.99097 13077 ft 357 kts 135°
2026-04-10 14:36 42.30288 8.01750 12605 ft 355 kts 119°
2026-04-10 14:36 42.29288 8.04785 12159 ft 353 kts 111°
2026-04-10 14:37 42.28373 8.07858 11706 ft 351 kts 111°
2026-04-10 14:37 42.27461 8.10914 11248 ft 350 kts 111°
2026-04-10 14:37 42.26548 8.13961 10739 ft 351 kts 111°
2026-04-10 14:37 42.25633 8.17007 10274 ft 350 kts 111°
2026-04-10 14:38 42.24726 8.20018 10037 ft 341 kts 111°
2026-04-10 14:38 42.23844 8.22929 9916 ft 329 kts 111°
2026-04-10 14:38 42.22995 8.25734 9777 ft 317 kts 111°
2026-04-10 14:38 42.22175 8.28451 9227 ft 310 kts 111°
2026-04-10 14:39 42.21369 8.31125 8655 ft 305 kts 111°
2026-04-10 14:39 42.20570 8.33768 8256 ft 304 kts 111°
2026-04-10 14:39 42.19782 8.36371 7914 ft 301 kts 112°
2026-04-10 14:39 42.18995 8.38963 7492 ft 296 kts 112°
2026-04-10 14:40 42.18218 8.41516 7098 ft 292 kts 112°
2026-04-10 14:40 42.17452 8.44032 6723 ft 290 kts 112°
2026-04-10 14:40 42.16687 8.46540 6340 ft 288 kts 112°
2026-04-10 14:40 42.15718 8.48876 5961 ft 285 kts 127°
2026-04-10 14:41 42.14359 8.50791 5665 ft 281 kts 141°
2026-04-10 14:41 42.12872 8.52448 5374 ft 280 kts 141°
2026-04-10 14:41 42.11380 8.54125 5084 ft 278 kts 141°
2026-04-10 14:41 42.09899 8.55793 4790 ft 277 kts 141°
2026-04-10 14:42 42.08427 8.57449 4489 ft 275 kts 141°
2026-04-10 14:42 42.06952 8.59105 4198 ft 275 kts 141°
2026-04-10 14:42 42.05501 8.60733 3912 ft 269 kts 141°
2026-04-10 14:42 42.04083 8.62323 3627 ft 258 kts 141°
2026-04-10 14:43 42.02741 8.63826 3383 ft 246 kts 141°
2026-04-10 14:43 42.01516 8.65411 3119 ft 244 kts 127°
2026-04-10 14:43 42.00736 8.67379 2992 ft 233 kts 108°
2026-04-10 14:43 42.00412 8.69422 2988 ft 214 kts 100°
2026-04-10 14:44 42.00169 8.71316 3017 ft 200 kts 99°
2026-04-10 14:44 41.99941 8.73076 3004 ft 183 kts 102°
2026-04-10 14:44 41.99724 8.74738 2760 ft 182 kts 102°
2026-04-10 14:44 41.99504 8.76407 2434 ft 180 kts 102°
2026-04-10 14:45 41.99292 8.78021 2141 ft 172 kts 102°
2026-04-10 14:45 41.99087 8.79590 1870 ft 169 kts 103°
2026-04-10 14:45 41.98833 8.81064 1593 ft 157 kts 121°
2026-04-10 14:45 41.98191 8.82161 1362 ft 142 kts 149°
2026-04-10 14:46 41.97312 8.82676 1122 ft 140 kts 174°
2026-04-10 14:46 41.96366 8.82603 917 ft 134 kts 196°
2026-04-10 14:46 41.95506 8.82177 681 ft 132 kts 208°
2026-04-10 14:46 41.94676 8.81664 533 ft 133 kts 207°
2026-04-10 14:47 41.93845 8.81146 287 ft 129 kts 205°
2026-04-10 14:47 41.93014 8.80632 59 ft 132 kts 207°
2026-04-10 14:47 41.92281 8.80165 24 ft 84 kts 204°
2026-04-10 14:47 41.91880 8.79923 23 ft 52 kts 203°
2026-04-10 14:48 41.91596 8.79748 22 ft 39 kts 205°
2026-04-10 14:48 41.91411 8.79637 23 ft 25 kts 205°
2026-04-10 14:48 41.91275 8.79551 23 ft 19 kts 207°
2026-04-10 14:48 41.91265 8.79416 21 ft 18 kts 320°
2026-04-10 14:49 41.91386 8.79341 21 ft 20 kts 336°
2026-04-10 14:49 41.91516 8.79367 21 ft 19 kts 26°
2026-04-10 14:49 41.91632 8.79438 21 ft 18 kts 25°
2026-04-10 14:49 41.91738 8.79505 21 ft 16 kts 26°
2026-04-10 14:50 41.91820 8.79556 21 ft 10 kts 25°
2026-04-10 14:50 41.91872 8.79551 23 ft 7 kts 339°
2026-04-10 14:50 41.91906 8.79539 21 ft 3 kts 345°
2026-04-10 14:50 41.91913 8.79537 21 ft 0 kts 345°